Chattanooga, TN

3:25 AM EDT on September 28, 2016 (GMT -0400)
Lovell

Weather History for KCHA - August, 2014

Change the Weather History Date:

Tuesday, August 26, 2014

  Actual Average Record
Temperature  
Mean Temperature 78 °F 78 °F  
Max Temperature 88 °F 89 °F 101 °F (1943)
Min Temperature 68 °F 68 °F 55 °F (1966)
Cooling Degree Days 13 14  
Month to date cooling degree days 374 382  
Year to date cooling degree days 1428 1386  
Since 1 June cooling degree days 1170 1190  
Growing Degree Days 28 (Base 50)    
Moisture  
Dew Point 63 °F    
Average Humidity 64    
Maximum Humidity 84    
Minimum Humidity 43    
Precipitation  
Precipitation 0.00 in 0.10 in 3.28 in (2008)
Month to date precipitation 2.89 2.97  
Year to date precipitation 27.74 34.75  
Snow  
Snow 0.00 in - - ()
Month to date snowfall 0.0  
Since 1 June snowfall 0.0  
Snow Depth 0.00 in    
Sea Level Pressure  
Sea Level Pressure 30.09 in    
Wind  
Wind Speed 3 mph (SE)    
Max Wind Speed 13 mph    
Max Gust Speed 17 mph    
Visibility 10 miles    
Events      
T = Trace of Precipitation, MM = Missing Value Source: NWS Daily Summary

Daily Weather History Graph

Daily Weather History Graph

Search for Another Location

Airport or City:

Trip Planner

Search our weather history database for the weather conditions in past years. The results will help you decide how hot, cold, wet, or windy it might be!

Date:

Astronomy

Aug. 26, 2014 Rise Set
Actual Time 7:09 AM EDT 8:15 PM EDT
Civil Twilight 6:42 AM EDT 8:41 PM EDT
Nautical Twilight 6:11 AM EDT 9:12 PM EDT
Astronomical Twilight 5:39 AM EDT 9:44 PM EDT
Moon 8:04 AM EDT (8/26) 8:41 PM EDT (8/26)
Length of Visible Light 13h 58m
Length of Day
13h 06m
New Moon, 1% of the Moon is Illuminated
Aug 26
New Moon
Sep 2
First Quarter
Sep 8
Full
Sep 15
Last Quarter
Sep 24
New

Hourly Weather History & Observations

Time (EDT) Temp. Heat Index Dew Point Humidity Pressure Visibility Wind Dir Wind Speed Gust Speed Precip Events Conditions
12:53 AM 78.1 °F - 64.0 °F 62% 30.08 in 10.0 mi SSW 4.6 mph - N/A   Mostly Cloudy
1:53 AM 77.0 °F - 64.9 °F 66% 30.08 in 10.0 mi Calm Calm - N/A   Mostly Cloudy
2:53 AM 75.0 °F - 63.0 °F 66% 30.06 in 10.0 mi SW 3.5 mph - N/A   Mostly Cloudy
3:53 AM 73.9 °F - 62.1 °F 66% 30.06 in 10.0 mi SSW 3.5 mph - N/A   Mostly Cloudy
4:53 AM 71.6 °F - 62.6 °F 73% 30.09 in 10.0 mi Calm Calm - N/A   Mostly Cloudy
5:53 AM 70.0 °F - 62.1 °F 76% 30.08 in 10.0 mi Calm Calm - N/A   Scattered Clouds
6:53 AM 69.1 °F - 61.0 °F 75% 30.09 in 10.0 mi SSE 3.5 mph - N/A   Scattered Clouds
7:53 AM 70.0 °F - 61.0 °F 73% 30.12 in 10.0 mi Calm Calm - N/A   Mostly Cloudy
8:53 AM 72.0 °F - 61.0 °F 68% 30.15 in 10.0 mi SSE 4.6 mph - N/A   Mostly Cloudy
9:53 AM 75.9 °F - 59.0 °F 56% 30.15 in 10.0 mi SSW 6.9 mph - N/A   Mostly Cloudy
10:53 AM 78.8 °F - 59.0 °F 51% 30.18 in 10.0 mi SSE 6.9 mph - N/A   Mostly Cloudy
11:53 AM 79.0 °F - 59.0 °F 50% 30.16 in 10.0 mi Calm Calm - N/A   Scattered Clouds
12:53 PM 82.0 °F 82.1 °F 59.0 °F 45% 30.14 in 10.0 mi ESE 4.6 mph - N/A   Mostly Cloudy
1:53 PM 84.0 °F 83.8 °F 59.0 °F 43% 30.12 in 10.0 mi Calm Calm - N/A   Mostly Cloudy
2:53 PM 87.1 °F 87.5 °F 62.1 °F 43% 30.09 in 10.0 mi Variable 6.9 mph - N/A   Mostly Cloudy
3:53 PM 87.1 °F 87.8 °F 63.0 °F 44% 30.06 in 10.0 mi ENE 10.4 mph - N/A   Scattered Clouds
4:53 PM 88.0 °F 88.7 °F 63.0 °F 43% 30.04 in 10.0 mi NNE 10.4 mph - N/A   Scattered Clouds
5:53 PM 86.0 °F 86.8 °F 63.0 °F 46% 30.04 in 10.0 mi ENE 6.9 mph - N/A   Scattered Clouds
6:53 PM 86.0 °F 87.3 °F 64.0 °F 48% 30.04 in 10.0 mi Variable 3.5 mph - N/A   Scattered Clouds
7:53 PM 84.0 °F 85.4 °F 64.0 °F 51% 30.04 in 10.0 mi ENE 4.6 mph - N/A   Scattered Clouds
8:53 PM 82.0 °F 83.4 °F 64.0 °F 54% 30.05 in 10.0 mi NE 4.6 mph - N/A   Partly Cloudy
9:53 PM 75.9 °F - 66.9 °F 74% 30.07 in 10.0 mi Calm Calm - N/A   Clear
10:53 PM 73.9 °F - 68.0 °F 82% 30.08 in 10.0 mi Calm Calm - N/A   Clear
11:53 PM 73.9 °F - 66.9 °F 79% 30.07 in 10.0 mi Calm Calm - N/A   Scattered Clouds